Location: Killam
(52.7910°N, 111.8608°W)
Time: 23:47:22
(UTC+00:00)

NOAA 15 - Visible Passes

Search period start: 15 December 2025 00:00
Search period end: 25 December 2025 00:00
Orbit: 794 x 809 km, 98.5° (Epoch: 15 December)

Date Brightness Start Highest point End Pass type
(mag) Time Alt. Az. Time Alt. Az. Time Alt. Az.
15 Dec 5.6 00:16:21 10° ESE 00:20:31 24° ENE 00:24:42 10° N visible
15 Dec 4.8 01:54:32 10° S 01:59:49 71° WSW 02:05:07 10° NNW visible
15 Dec 7.5 03:38:17 10° WSW 03:40:31 13° W 03:42:46 10° WNW visible
15 Dec 6.7 14:03:07 10° NNE 14:07:39 29° E 14:12:09 10° SSE visible
15 Dec 6.0 23:51:22 10° E 23:54:40 17° NE 23:57:59 10° NNE visible
16 Dec 4.5 01:28:21 10° SSE 01:33:37 76° ENE 01:38:54 10° NNW visible
16 Dec 7.0 03:10:05 10° SW 03:13:56 20° W 03:17:48 10° NW visible
16 Dec 7.4 13:37:31 10° NE 13:41:08 19° E 13:44:45 10° SE visible
17 Dec 4.7 01:02:26 10° SE 01:07:30 50° ENE 01:12:35 10° N visible
17 Dec 6.3 02:42:47 10° SSW 02:47:27 31° W 02:52:08 10° NNW visible
17 Dec 7.7 13:12:52 10° ENE 13:14:32 11° E 13:16:11 10° E visible
17 Dec 5.1 14:50:04 10° NNE 14:55:19 65° ESE 15:00:30 10° S visible
18 Dec 5.2 00:36:49 10° ESE 00:41:29 33° ENE 00:46:09 10° N visible
18 Dec 5.5 02:15:58 10° S 02:21:04 49° W 02:26:12 10° NNW visible
18 Dec 6.0 14:24:01 10° NNE 14:28:59 41° E 14:33:55 10° SSE visible
19 Dec 5.7 00:11:31 10° ESE 00:15:34 23° NE 00:19:36 10° N visible
19 Dec 4.7 01:49:30 10° S 01:54:47 76° WSW 02:00:05 10° NNW visible
19 Dec 7.4 03:32:47 10° WSW 03:35:25 14° W 03:38:04 10° NW visible
19 Dec 6.9 13:58:10 10° NE 14:02:35 27° E 14:06:56 10° SSE visible
20 Dec 4.5 01:23:22 10° SSE 01:28:36 70° ENE 01:33:51 10° NNW visible
20 Dec 6.9 03:04:49 10° SW 03:08:50 22° W 03:12:53 10° NW visible
20 Dec 7.4 13:32:40 10° NE 13:36:03 17° E 13:39:24 10° SE visible
21 Dec 4.8 00:57:30 10° SE 01:02:30 46° ENE 01:07:31 10° N visible
21 Dec 6.2 02:37:37 10° SSW 02:42:23 34° W 02:47:09 10° NNW visible
21 Dec 7.9 13:08:42 10° ENE 13:09:24 10° E 13:10:07 10° E visible
21 Dec 5.3 14:45:04 10° NNE 14:50:16 60° ESE 14:55:25 10° S visible
22 Dec 5.3 00:31:56 10° ESE 00:36:29 31° ENE 00:41:04 10° N visible
22 Dec 5.3 02:10:52 10° S 02:16:01 53° W 02:21:11 10° NNW visible
22 Dec 6.2 14:19:02 10° NNE 14:23:55 38° E 14:28:46 10° SSE visible
23 Dec 5.7 00:06:42 10° ESE 00:10:35 21° NE 00:14:28 10° N visible
23 Dec 4.6 01:44:27 10° SSE 01:49:45 83° WSW 01:55:03 10° NNW visible
23 Dec 7.3 03:27:20 10° WSW 03:30:18 15° W 03:33:17 10° NW visible
23 Dec 7.0 13:53:13 10° NE 13:57:29 24° E 14:01:42 10° SE visible
24 Dec 4.5 01:18:22 10° SSE 01:23:35 65° ENE 01:28:48 10° N visible
24 Dec 6.8 02:59:34 10° SW 03:03:45 24° W 03:07:58 10° NW visible
24 Dec 7.5 13:27:50 10° NE 13:30:56 16° E 13:34:01 10° ESE visible
